Погода в Мариуполе

Погода в Мариуполе : погода сейчас, прогноз погоды и архив. Всё, что Вы хотите узнать о погоде в Мариуполе!

Поиск расширенной информации на нашем сайте:

Другие новости

Новости СМИ2

Главная страница сайта

Новости сайта

02.10.2013

Напоминаем, что на нашем новом сайте вы можете получить высокодетализированные прогнозы погоды по пунктам России, СНГ и мира (включающие важные для авиации метеовеличины, такие как направление и скорость ветра, видимость, явления погоды, количество и форма облачности, нижняя и верхняя граница облачности), а также ознакомиться с разнообразными материалами по авиационной метеорологии и подборкой полезных ссылок на эту тему.

Сайт Метеоцентр.Азия посвящён разработке технологий оптимизации авиаметеорологического обслуживания, включая проектирование и перспективное создание нескольких автоматизированных авиаметеорологических систем:
- система выпуска высокодетальных прогностических карт явлений погоды для нижнего воздушного пространства по России и ближнему зарубежью;
- система верификации прогнозов TAF (выпускаемых синоптиками официальных АМСГ РФ и ближнего зарубежья) и AUTOTAF (выпускаемых сайтом Метеоцентр.Азия) - выявление ошибок, онлайн-сопоставление с фактической погодой METAR, автоматическое внесение коррективов в прогнозы при резком отклонении фактической погоды от прогноза, подсчёт оправдываемости прогнозов по элементам и в целом;
- система обработки, анализа и отображения авиаметеорологической информации для применения провайдерами метеорологической информации.

Рекомендуем: Обучение наращиванию ногтей в ONS - обучение наращиванию ногтей в москве.

Погода в Мариуполе - сегодня

Время (UTC), дата Ветер
(°,м/с) 
Видим.   Явления Облачность Т
(°С)
Тd
(°С)
f(%) Тe
(°С)
Pmin
(гПа)
dP
(гПа)
Po
(мм)
O2
(г/м3)
Тmin Tmax R s Состояние
почвы
18 24.03.15 260 (З) 20000 м    ясно 
+0.8 -10.4 43 -1  1026.6  0.4  763  308    +4.6       
21 24.03.15 270 (З) 20000 м    ясно 
-0.4 -8.8 53 -2  1026.8  0.1  763  309           
00 25.03.15 320 (СЗ) 20000 м    ясно 
-1.8 -8.3 61 -3  1027.4  0.6  764  311           
03 25.03.15 350 (С) 10 км    3/0 верхняя 
[Ci fib]
-2.7 -7.6 69 -5  1028.3  0.8  764  312           
06 25.03.15 110 (В) 10 км    1/0 верхняя 
[Cs]
+4.2 -5 51 +4  1028.7  0.6  765  304  -3.6         
09 25.03.15 140 (ЮВ) 20000 м    3/0 верхняя 
[Ci fib]
+5.7 +1.4 74 +4  1027.8  -0.8  764  301           
12 25.03.15 180 (Ю) 0500 м  туман  ?/?  
+3.9 +3.9 100 +2  1026.8  -1  764  303           
15 25.03.15 230 (ЮЗ) 20000 м  {туман}  3/0 верхняя 
[Ci fib]
+7.2 -1.4 54 +6    -0.3             
18 25.03.15 320 (СЗ) 10 км  {туман}  ясно 
+3.5 -1.6 69 +3  1025.7  -0.8  763  304    +7.2       
21 25.03.15 110 (В) 4000 м  дымка  ясно 
+3.7 +1.1 83 +3  1025.1  -0.6  762  303           
00 26.03.15 020 (С) 4000 м  дымка  ясно 
+0.2 -2.2 84 -1  1025.1  -0.1  762  307           
03 26.03.15 020 (С) 10 км    ясно 
+2.9 -0.4 79 +2  1024.7  -0.4  762  304           
06 26.03.15 050 (СВ) 10 км    3/0 верхняя 
[Cs]
+5.9 -1.4 59 +5  1024.9  0.3  762  301  -1         
09 26.03.15 140 (ЮВ) 10 км    4/0 верхняя 
[Cs]
+8.4 -0.3 54 +7  1024.2  -0.6  762  298        <0.5   
12 26.03.15 140 (ЮВ) 10 км    9/0 верхняя 
[Cs]
+9.4 +2.5 62 +9  1022.9  -1.2  761  296      80   
15 26.03.15 180 (Ю) 10 км    10/0 верхняя 
[Cs]
+10.1 +3.4 63 +11  1022.3  -0.6  760  295           
18 26.03.15 070 (В) 20000 м    3/0 верхняя 
[Cs]
+9.2 +2 61 +10  1021.6  -0.7  760  296    +11       
21 26.03.15 020 (С) 20000 м    4/0 средняя 
[Ac trans]
+7.6 +1.1 63 +9  1020.9  -0.8  759  297           
00 27.03.15 050 (СВ) 10 км    6/0 средняя 
[Ac trans]
+9.6 +0.4 53 +8  1019.7  -1.1  758  295           
03 27.03.15 070 (В) 20000 м    5/0 средняя 
[Ac trans]
+9.1 +0.3 54 +8  1018.7  -1  758  295           
06 27.03.15 040 (СВ) 20000 м    8/0 средняя 
[Ac As]
+9.8 -1 47 +8  1018.6  -0.1  758  295  +7         
09 27.03.15 080 (В) 20000 м    9/0 средняя, верхняя 
[Ac trans|Ci]
+10.2 +3.3 62 +8  1017.9  -0.7  757  294           
12 27.03.15 070 (В) 20000 м    9/0 средняя, верхняя 
[Ac trans|Cc]
+13.3 +0 40 +12  1016.6  -1.2  756  291           
15 27.03.15 080 (В) 11  20000 м    10/0 средняя 
[Ac As]
+13.1 +0.1 41 +11  1015.9  -0.7  756  291           
18 27.03.15 070 (В) 10  20000 м    8/0 верхняя 
[Cc]
+10.8 +0.2 48 +9  1017.1  1.2  757  293    +14.2       
Время (UTC), дата Ветер
(°,м/с) 
Видим.   Явления Облачность Т
(°С)
Тd
(°С)
f(%) Тe
(°С)
Pmin
(гПа)
dP
(гПа)
Po
(мм)
O2
(г/м3)
Тmin Tmax R s Состояние
почвы

Для получения пояснительной информации подведите курсор к названию столбца.

ПОГОДА в Мариуполе - архив

Всё, что Вы хотите узнать о погоде в Мариуполе - удобно и подробно!

Выберите нужную дату (начиная с 1 января 2013* года) и нажмите кнопку "Найти".
Будут отображены архивные сводки погоды по пункту Мариуполь, начиная с указанной даты.


Отображать данные в формате CSV (для использования в таблицах Excel)


Внимание! Наш архив погоды предназначен исключительно для личного некоммерческого использования в познавательных целях. Если Вам необходимы официальные справки о состоянии погоды (для производственных, юридических, коммерческих и т.п. целей), обращайтесь в органы Росгидромета.

*Примечание: данная дата относится к архиву по метеостанциям СССР (Россия, СНГ, Балтия).
Архив по метеостанциям Зарубежной Европы и Азии (кроме Китая) хранится 10 дней, по другим регионам земного шара (Китай, Африка, Америка, Австралия, Океания) - 1 день.

Мариуполь - район местоположения метеостанции


Название, широта, долгота, высота метеостанции:
Мариуполь (город) 47°ш. 37.5°д. 70 м над ур. моря [Украина]

Дополнительная информация

В oтличие oт бoльшинства пoгoдных сайтoв мы публикуем пoдрoбную метеoинфoрмацию в детальнoм прoфессиoнальнoм фoрмате.

Характеристики температуры и влажнoсти вoздуха измеряются на высoте 2 м в тени вдали oт зданий и деревьев.
Скoрoсть ветра измеряется на высoте 10 м (на урoвне рoста челoвека скoрoсть ветра ниже в 1.5-2 раза). Если метеoстанция нахoдится в гoрoде или в лесу, тo скoрoсть ветра занижена на 2-4 м/с пo сравнению с oткрытым местoм. Скoрoсть ветра над акватoриями крупных рек и oзёр, а также на вершинах хoлмoв на 2-5 м/с выше, чем в oбычных услoвиях.
Атмoсфернoе давление в разных тoчках местнoсти мoжет значительнo oтличаться oт давления на метеoстанции, в зависимoсти oт услoвий рельефа (при пoдъёме на 10 м давление пoнижается примернo на 1 мм рт.ст.).